This is the latest recevied weather packets stored in our database for station/object KI5RAB. If no packets are shown the sender has not sent any weather packets the latest 10 day(s).
| Time | Temp. | Humidity | Pressure | Rain* | Wind** | Luminosity | Snow |
|---|---|---|---|---|---|---|---|
| 1777728512 | 13.33° C | 78% | 1025 hPa | 0 mm | - | 186 W/m² | - |
| 1777728209 | 12.78° C | 78% | 1024.6 hPa | 0 mm | - | 141 W/m² | - |
| 1777727906 | 13.33° C | 78% | 1024.8 hPa | 0 mm | - | 115 W/m² | - |
| 1777727603 | 12.78° C | 80% | 1024.7 hPa | 0 mm | - | 126 W/m² | - |
| 1777727300 | 12.22° C | 80% | 1024.6 hPa | 0 mm | - | 109 W/m² | - |
| 1777726998 | 12.22° C | 81% | 1024.7 hPa | 0 mm | - | 94 W/m² | - |
| 1777726694 | 12.22° C | 81% | 1024.5 hPa | 0 mm | - | 77 W/m² | - |
| 1777726392 | 11.67° C | 82% | 1024.4 hPa | 0 mm | - | 71 W/m² | - |
| 1777726089 | 11.67° C | 83% | 1024.5 hPa | 0 mm | - | 60 W/m² | - |
| 1777725786 | 11.67° C | 83% | 1024.2 hPa | 0 mm | - | 49 W/m² | - |
| 1777725483 | 11.11° C | 84% | 1024.1 hPa | 0 mm | - | 37 W/m² | - |
| 1777725180 | 11.11° C | 84% | 1024 hPa | 0 mm | - | 31 W/m² | - |
| 1777724877 | 11.11° C | 85% | 1024 hPa | 0 mm | - | 26 W/m² | - |
| 1777724573 | 10.56° C | 86% | 1023.9 hPa | 0 mm | - | 22 W/m² | - |
| 1777724271 | 10.56° C | 87% | 1023.6 hPa | 0 mm | - | 18 W/m² | - |
| 1777723969 | 10° C | 88% | 1023.7 hPa | 0 mm | - | 14 W/m² | - |
| 1777723666 | 10° C | 88% | 1023.6 hPa | 0 mm | - | 11 W/m² | - |
| 1777723363 | 10° C | 88% | 1023.8 hPa | 0 mm | - | 8 W/m² | - |
| 1777723060 | 10° C | 88% | 1023.7 hPa | 0 mm | - | 6 W/m² | - |
| 1777722757 | 10° C | 88% | 1023.5 hPa | 0 mm | - | 3 W/m² | - |
| 1777722452 | 10° C | 89% | 1023.3 hPa | 0 mm | - | 2 W/m² | - |
| 1777722150 | 10° C | 89% | 1023.4 hPa | 0 mm | - | 1 W/m² | - |
| 1777721847 | 10° C | 90% | 1023.4 hPa | 0 mm | - | 0 W/m² | - |
| 1777721545 | 10° C | 90% | 1023.4 hPa | 0 mm | - | 0 W/m² | - |
| 1777721242 | 10° C | 90% | 1023.3 hPa | 0 mm | - | 0 W/m² | - |
* Rain latest hour (hover to see other rain measurements)
** Current wind speed in m/s (hover to see current wind gust speed)